RH
96 98 98 93 98 96 94 95 98 98 95 98 98 96 99 99 87 71 46 23 24 19 21 19 16 17 12 9 7 8 11 10 12 25 32 20 21 22 24 31 46 32 31 45 62
79 98 99 96 96 96 98 98 98 98 97 97 97 96 97 100 78 43 27 27 22 18 22 15 15 12 10 9 9 9 9 9 19 50 28 22 23 25 28 30 37 38 37 48 57
78 98 98 99 99 98 99 99 97 98 97 98 98 95 98 96 48 18 21 25 18 16 14 11 10 9 10 9 9 9 12 12 22 15 19 22 25 20 30 56 33 42 47 46 56
81 90 99 99 98 98 98 94 98 98 98 98 94 95 98 79 29 21 19 21 15 23 14 10 9 11 12 11 9 12 10 11 17 13 14 16 16 22 65 76 62 32 40 40 48
82 83 99 100 100 98 99 94 98 98 98 99 97 98 77 44 25 23 10 13 19 27 14 9 11 11 11 9 9 13 12 12 13 16 15 20 36 20 26 22 26 38 43 39 42
82 77 99 100 100 99 100 98 98 98 98 99 99 85 67 38 16 27 25 23 21 19 12 10 9 8 8 10 11 10 11 9 12 14 15 18 17 14 21 20 29 34 30 30 30
77 77 100 99 100 100 100 98 99 97 98 99 98 79 48 27 16 25 22 17 17 13 10 11 10 11 11 13 10 9 10 11 14 14 16 17 12 19 23 22 28 26 27 28 27
72 74 94 99 100 100 99 98 99 98 94 100 88 71 42 20 17 20 22 19 17 15 14 15 14 13 15 11 11 10 9 15 13 14 14 12 14 19 20 22 25 25 27 28 28
68 68 79 100 99 100 99 99 95 92 79 85 84 63 28 19 16 13 16 14 19 17 16 16 16 16 14 15 12 10 12 12 14 11 13 10 13 20 18 22 25 28 31 31 31
66 66 70 100 99 99 98 97 81 75 76 72 60 56 28 14 13 11 14 14 16 18 19 18 17 18 16 14 15 13 11 10 12 11 9 7 14 18 18 19 25 25 28 31 32
67 68 69 98 98 99 96 75 55 54 51 29 21 20 13 13 14 10 10 12 15 16 17 18 17 17 13 12 10 9 8 8 8 10 8 9 13 14 19 19 21 22 25 28 30
66 66 69 97 98 98 94 40 30 43 37 24 21 18 17 16 14 9 10 12 15 16 16 18 23 13 10 10 9 9 10 12 12 12 16 11 13 15 18 19 20 22 23 24 28
66 67 80 99 98 98 67 41 40 44 41 21 18 18 13 16 12 10 9 10 13 15 20 23 15 13 13 10 10 11 10 15 14 15 15 13 17 22 20 20 25 23 23 24 31
68 68 98 98 84 58 49 38 40 41 38 21 19 15 14 12 13 10 9 11 12 15 14 29 16 14 12 12 12 17 14 13 14 19 20 14 18 20 24 26 27 28 27 29 31
68 72 85 71 71 44 45 46 44 54 45 15 14 12 11 12 10 13 11 11 14 14 15 21 17 15 14 17 17 26 17 16 15 16 19 16 17 43 24 24 27 28 29 31 35
68 82 95 98 85 56 57 68 59 58 38 18 14 14 16 14 12 10 12 11 13 15 14 30 16 15 16 19 17 19 20 20 17 16 26 15 18 21 24 21 24 29 32 35 36
69 83 95 84 45 61 73 59 55 45 17 15 15 13 15 14 15 15 15 15 14 21 20 17 16 18 17 20 19 17 20 25 23 26 28 18 19 16 13 18 19 29 32 34 34
73 94 97 77 62 81 72 53 46 22 19 12 11 14 16 14 14 15 13 14 12 16 22 19 29 19 18 17 18 20 17 25 28 27 18 21 21 14 17 15 17 24 29 33 32
96 100 98 92 88 85 58 66 39 15 15 15 13 16 17 15 15 17 17 14 13 14 19 17 22 18 19 18 16 18 25 18 26 30 32 18 12 14 21 21 21 26 29 32 30
83 97 69 75 86 78 55 46 25 18 16 14 17 15 20 19 17 16 19 16 20 20 18 16 22 18 22 20 21 22 18 25 22 34 34 16 16 12 23 23 24 27 30 30 28
67 59 35 67 78 59 54 36 20 20 19 18 15 15 16 18 17 16 16 20 21 20 18 14 18 26 24 24 18 24 22 20 22 29 32 22 16 15 14 20 23 24 27 28 28
61 57 70 77 55 48 45 27 19 24 26 20 20 14 17 17 20 17 16 15 21 20 19 15 21 34 25 22 20 21 20 21 30 25 28 40 22 15 18 19 21 22 23 25 26
61 56 79 68 70 70 32 24 20 25 24 24 20 16 15 17 21 18 17 36 33 26 20 25 24 36 30 26 22 21 18 19 18 32 26 49 22 16 18 19 18 21 23 25 26
45 62 74 65 42 38 34 26 28 25 22 20 18 21 24 26 23 27 28 35 34 27 46 33 23 26 34 25 21 28 20 19 21 31 26 24 15 13 15 17 16 19 20 23 26
39 40 42 74 52 35 28 26 23 29 26 25 28 23 23 28 30 32 30 37 37 58 33 30 34 25 24 25 22 20 19 20 20 19 25 19 11 9 9 11 13 15 20 21 28
41 35 35 45 39 34 36 26 22 23 26 30 26 20 20 27 28 27 32 33 34 38 35 34 38 38 44 28 27 26 20 16 17 18 15 14 14 10 12 12 16 17 22 24 28
43 46 35 54 42 35 33 23 22 23 36 25 22 25 27 34 34 33 31 28 28 37 40 41 51 46 35 39 38 58 38 22 17 16 17 22 16 14 19 19 19 19 23 26 28
Wind_Speed
14 15 15 16 17 20 17 16 18 19 17 17 18 17 16 18 22 15 15 12 10 18 9 11 19 16 12 13 11 12 10 15 10 13 12 16 14 11 3 2 11 4 2 16 17
17 15 16 16 17 21 20 15 16 18 16 15 17 17 16 19 20 25 20 19 16 11 14 18 17 16 13 13 9 10 13 13 10 9 16 9 6 8 3 1 10 7 14 20 21
18 15 17 17 18 19 19 15 15 16 15 14 15 15 15 14 11 1 8 13 14 19 14 17 14 14 15 10 13 15 14 1 13 8 15 12 7 13 5 7 10 11 17 18 18
17 17 17 18 18 18 17 14 13 14 13 13 14 13 14 7 4 8 7 10 21 13 14 12 12 14 12 11 14 12 8 7 7 12 11 14 14 19 18 17 37 18 19 16 17
17 19 16 16 19 16 16 13 11 11 12 11 12 12 7 7 12 5 2 18 22 13 13 11 12 13 10 12 13 10 7 2 2 5 9 14 17 7 12 13 19 22 17 16 14
17 19 17 16 17 15 14 11 10 8 10 9 9 7 6 10 3 3 10 17 16 17 15 13 7 8 8 11 13 9 6 5 7 6 4 9 8 13 8 16 19 19 19 16 15
16 17 16 15 16 13 11 9 9 8 8 7 7 5 8 14 2 4 9 11 12 15 12 12 7 8 4 7 4 5 8 11 10 12 8 11 8 10 8 16 17 16 16 15 14
16 17 16 15 14 13 8 7 8 7 9 5 4 4 8 5 6 8 10 7 14 14 12 5 8 11 8 3 6 10 11 13 13 11 5 14 14 9 9 15 16 17 14 14 13
16 16 17 14 11 11 6 7 9 8 6 1 1 5 6 4 8 5 12 6 9 12 7 5 6 9 8 11 9 8 7 9 10 12 11 15 17 11 11 12 14 13 14 12 12
17 17 16 13 9 7 6 6 8 1 1 3 8 6 10 7 2 3 7 9 10 10 8 6 8 8 10 10 8 7 12 14 13 10 12 10 15 11 13 14 14 15 15 14 13
17 17 15 10 8 9 6 2 6 6 8 11 1 9 2 5 5 9 10 10 8 13 7 7 6 8 6 9 9 13 9 12 14 6 10 9 11 13 12 13 14 14 14 13 12
18 17 13 7 8 9 8 7 8 7 7 20 17 12 13 4 5 7 7 7 6 10 11 8 16 10 6 5 5 5 6 12 7 9 9 9 11 10 12 14 13 13 13 13 12
18 16 10 7 8 9 15 16 3 12 6 10 13 11 7 9 10 11 10 12 8 13 12 10 3 5 6 8 8 5 9 11 12 12 14 11 13 12 10 9 9 11 13 12 12
19 16 10 12 7 11 11 14 18 6 5 11 10 8 8 7 9 1 6 3 4 5 5 3 8 5 3 5 3 10 3 10 3 9 14 16 13 21 17 16 13 13 10 11 12
20 16 16 17 4 10 5 3 5 6 5 17 13 6 6 10 7 9 4 5 12 6 7 11 10 12 11 3 5 12 7 6 7 12 5 15 9 15 13 15 15 14 13 13 14
21 17 15 16 11 11 1 1 5 5 7 8 9 11 11 12 7 11 9 6 3 6 11 13 2 3 5 2 3 4 5 6 7 10 7 16 12 14 15 15 16 16 15 15 16
22 20 24 14 5 6 6 6 6 9 7 12 16 14 15 11 10 11 16 14 11 11 11 9 8 4 5 6 5 9 9 8 8 8 10 3 6 12 7 7 14 18 18 17 16
22 20 23 19 13 4 9 8 12 14 13 4 15 14 13 10 11 11 16 17 17 13 10 12 9 12 9 10 4 9 13 9 6 6 10 7 7 3 9 3 6 18 17 17 18
19 14 11 22 21 6 8 10 14 9 11 10 12 13 14 10 6 12 14 16 15 13 13 8 6 6 2 3 7 7 8 7 5 3 7 12 16 11 6 5 8 16 18 19 19
19 10 20 16 21 11 9 15 20 3 6 12 16 16 15 15 11 14 12 5 6 4 5 1 3 3 5 4 5 8 3 4 5 4 9 5 5 5 6 6 10 15 18 19 18
20 6 15 24 23 7 12 16 17 8 8 12 17 13 14 13 14 15 10 8 6 8 5 6 7 7 4 10 11 7 10 7 4 2 4 4 2 7 3 2 9 13 17 18 18
19 11 21 34 11 11 15 22 8 10 9 9 7 9 12 12 13 11 13 6 7 7 10 6 5 5 13 5 5 10 8 10 5 6 2 3 7 3 4 2 7 10 13 16 16
13 8 17 23 13 13 18 22 13 11 12 12 11 9 9 11 10 12 11 5 5 8 5 6 7 8 7 6 7 9 11 9 4 1 8 3 3 6 6 4 5 10 13 15 18
12 10 7 8 16 18 24 19 17 7 8 11 11 10 11 8 6 8 8 4 4 4 3 1 11 10 10 6 2 12 13 12 13 7 9 10 13 7 10 7 7 8 11 16 17
13 12 14 16 19 21 20 19 22 12 10 12 11 15 12 8 9 8 9 6 6 5 6 4 7 12 14 6 6 8 10 13 17 16 13 12 13 8 7 7 7 8 9 13 15
11 12 14 17 23 20 20 22 23 18 15 14 10 15 12 9 11 10 11 9 7 10 8 5 4 2 5 8 8 11 12 14 14 17 17 17 16 15 10 4 7 6 9 11 14
16 2 13 15 22 18 17 20 22 15 2 4 11 9 10 6 8 10 8 4 3 7 10 5 4 4 4 3 4 6 16 16 16 16 14 16 15 9 3 5 8 8 8 11 12
Wind_Direction
298 300 305 308 308 308 311 315 312 306 305 309 307 307 312 309 308 283 257 254 208 214 206 193 196 211 228 230 238 241 256 246 226 181 166 121 120 91 100 160 190 287 137 122 136
299 298 301 303 306 308 309 315 310 303 304 304 305 306 314 312 305 272 249 238 231 218 202 185 190 199 213 218 209 221 231 253 50 93 168 131 128 173 134 163 234 158 97 128 141
301 291 298 305 308 307 308 315 307 302 303 305 304 309 313 326 283 161 179 223 196 171 205 198 203 204 230 215 215 218 265 138 163 85 154 144 194 160 90 328 199 147 139 137 139
295 300 297 303 306 307 305 310 308 300 298 302 302 307 314 311 310 32 313 208 181 183 221 210 201 214 232 206 213 255 256 276 125 126 128 154 198 157 92 197 245 140 136 143 133
294 292 293 302 304 304 304 309 303 298 294 301 302 311 331 242 255 14 75 159 173 196 214 201 205 220 223 210 204 232 157 274 281 133 142 279 39 109 151 131 113 122 139 142 145
291 293 293 301 302 303 304 305 294 292 294 301 305 327 268 264 47 103 140 157 174 188 206 217 234 246 252 208 203 187 257 173 175 170 169 221 150 107 77 107 122 143 144 145 153
287 287 292 300 300 296 300 295 282 281 284 295 302 318 262 247 24 159 158 191 197 204 206 223 244 253 321 223 255 222 201 170 175 176 198 214 149 88 121 129 138 145 140 146 149
282 284 291 294 294 290 289 278 272 267 270 280 306 292 265 218 252 224 213 228 216 220 251 310 260 278 274 2 206 214 207 182 166 182 180 213 123 131 153 144 153 142 142 145 141
276 278 287 286 286 283 273 259 258 259 258 23 330 244 264 194 234 229 216 217 185 201 214 274 217 230 218 240 190 211 192 164 172 207 167 224 124 130 164 166 147 149 152 151 156
269 272 284 279 276 260 243 239 277 241 336 244 262 266 248 216 114 175 187 148 159 164 182 206 208 224 222 215 195 164 237 167 161 170 188 215 113 140 173 173 168 170 166 162 169
260 266 276 266 264 233 205 206 216 195 211 233 210 257 101 337 205 210 161 193 142 183 182 208 231 236 183 214 270 197 185 185 124 146 225 189 149 162 175 184 183 186 178 177 177
253 261 267 253 240 223 224 243 333 353 277 220 250 266 272 279 242 218 170 239 185 234 142 196 210 237 204 187 250 250 236 115 122 173 252 197 174 162 178 195 188 197 194 189 167
245 255 246 218 202 210 225 229 327 355 250 179 224 246 238 191 224 196 197 223 213 186 207 311 91 156 191 193 229 236 217 158 176 182 231 197 169 177 184 182 216 207 201 195 174
240 248 213 176 179 221 228 247 251 283 256 165 204 212 194 227 222 122 262 255 216 177 107 294 196 201 217 215 256 264 102 220 195 197 215 209 234 187 172 183 196 202 201 187 182
235 235 210 183 348 203 72 205 199 182 236 158 166 118 160 212 222 173 194 171 244 234 220 191 176 201 209 73 292 109 237 208 210 240 243 189 255 139 241 192 188 185 189 174 164
225 223 200 209 258 238 284 65 186 230 221 167 164 185 187 211 218 165 178 236 223 245 234 255 31 301 51 100 266 130 168 213 239 254 252 260 225 173 189 209 180 179 176 169 164
220 215 195 189 217 202 215 184 208 217 156 169 189 187 203 180 187 203 191 196 214 210 218 178 171 120 182 145 159 203 218 225 227 217 237 269 280 270 246 161 188 183 179 173 169
214 206 209 211 242 286 196 206 226 209 205 161 180 188 209 169 195 208 195 211 216 247 248 193 183 178 178 257 235 219 251 249 277 274 272 146 244 290 28 86 247 169 180 175 177
192 193 216 226 221 253 221 205 217 213 190 181 186 191 200 177 226 203 213 215 202 222 258 237 143 133 239 228 264 184 245 324 306 292 283 286 276 176 138 156 203 173 180 182 184
178 190 226 200 195 209 222 217 226 255 214 192 188 198 192 194 204 200 195 201 167 237 282 321 266 175 129 214 214 272 26 217 225 257 256 293 274 298 169 203 200 187 187 186 188
186 202 204 169 165 208 213 202 229 190 202 204 202 193 219 187 203 197 203 143 199 184 239 265 249 149 170 211 228 182 232 233 303 291 285 303 299 56 22 231 201 208 192 191 193
195 207 155 151 187 201 213 208 213 187 199 212 272 191 223 195 207 217 225 224 164 193 209 212 244 207 230 84 306 299 267 206 229 212 227 312 286 149 128 214 196 214 200 197 201
198 171 168 182 197 199 209 212 191 205 200 198 202 212 211 208 208 223 217 78 177 209 222 184 228 225 230 206 218 239 230 238 225 326 238 239 276 170 153 214 217 217 208 207 206
191 170 154 199 219 195 203 198 201 218 203 197 201 175 188 197 211 195 192 155 190 205 356 27 243 229 244 275 301 207 241 218 215 223 245 242 281 218 201 224 219 225 228 207 212
212 195 176 182 201 196 202 200 197 180 228 196 191 204 197 207 190 206 185 160 183 157 195 237 238 238 262 291 291 282 259 224 234 237 252 263 269 284 313 296 250 219 232 228 217
214 194 175 169 197 207 194 216 194 193 182 196 215 203 206 195 208 212 195 192 185 181 197 199 228 277 254 244 264 265 255 253 243 249 254 260 275 295 332 281 270 249 238 232 221
234 104 177 165 190 202 194 212 194 180 211 257 214 167 195 84 60 44 65 59 115 178 196 185 171 182 246 358 296 288 239 248 248 248 251 263 272 342 319 268 274 258 233 238 232